www.pogodaiklimat.ru

Погода и климат >> Архив погоды >> Россия >> Саратовская область >> Красный Кут


ПОГОДА в Красном Куте

  • Прогноз погоды в Красном Куте
  • Монитор погоды в Красном Куте

АРХИВ ПОГОДЫ в Красном Куте

Время (UTC), дата Ветер
(напр.,м/с)
 
Видим.   Явления Облачность Т
(С)
Тd
(С)
f
(%)
Тe
(С)
Тes
(С)
Комфортность P
(гПа)
Po
(гПа)
Тmin
(С)
Tmax
(С)
R
(мм)
R24
(мм)
S
(см)
03 17.03 В 3 10 км 10/0
[Ac trans]
+0.1 -0.2 98 -5 -5 1013.3 1007.1 +0.1 25
06 17.03 В 3 10 км 10/10 1500 м
[Sc]
+1.3 +0.5 94 -3 -3 1014.4 1008.2 -0.1
09 17.03 В 3 10 км 10/0
[Ac trans]
+2.4 +0.5 87 -2 +1 1015.1 1008.9
12 17.03 В 3 10 км 10/10 30 м
[Sc]
+1.3 +0.3 93 -3 -3 1016.3 1010.0
15 17.03 В 3 4000 м дымка 10/10 400 м
[Sc]
+0.4 -1.0 90 -4 -4 1017.4 1011.2 +2.8
18 17.03 В 3 10 км слаб. снег 10/10 210 м
[Frnb Ns]
+0.2 -1.0 92 -5 -5 1019.0 1012.7
21 17.03 СВ 1 10 км слаб. снег 10/10 240 м
[Frnb Ns]
-0.4 -0.5 99 -3 -3 1020.1 1013.8
00 18.03 СВ 2 10 км {снег} 10/10 240 м
[Frnb Ns]
-0.9 -2.1 92 -5 -5 1020.8 1014.5
03 18.03 С 3 10 км 10/8 400 м
[Sc Ac trans]
-1.4 -2.8 90 -6 -6 1022.0 1015.7 -1.4 0.2 21
06 18.03 С 3 10 км 10/10 900 м
[Sc]
-0.9 -1.5 96 -6 -6 1025.0 1018.7 -1.4
09 18.03 С 5 10 км 8/0
[Ac trans]
+0.1 -2.0 86 -6 -4 1024.9 1018.6
12 18.03 С 5 10 км 3/0
[Ac trans]
+0.4 -1.9 85 -6 -4 1026.0 1019.7
15 18.03 С 3 10 км 3/0
[Ac trans]
-2.2 -3.2 93 -7 -7 1027.2 1020.8 +0.6
18 18.03 С 1 10 км ясно -5.2 -5.7 96 -8 -8 1028.5 1022.0
21 18.03 С 2 10 км ясно -6.7 -7.9 91 -11 -11 1028.8 1022.3
00 19.03 штиль 0 10 км ясно -7.2 -8.3 92 -8 -8 1029.0 1022.5
03 19.03 С 1 10 км ясно -9.2 -9.8 95 -12 -12 1030.1 1023.6 -9.2 21
06 19.03 СЗ 1 10 км ясно -1.5 -3.8 84 -4 +2 1030.0 1023.7 -9.2
09 19.03 СЗ 1 10 км ясно +1.9 -1.8 76 0 +11 1030.1 1023.8
12 19.03 СЗ 1 10 км 3/0
[Ci fib]
+1.9 -1.3 79 0 +5 1029.9 1023.6
15 19.03 З 1 10 км ясно -0.7 -2.9 85 -3 -3 1029.9 1023.5 +2.6
18 19.03 СЗ 1 10 км ясно -5.2 -6.4 91 -8 -8 1030.1 1023.6
21 19.03 штиль 0 10 км 3/3
[Sc Ac trans]
-4.6 -5.4 94 -6 -6 1029.3 1022.8
00 20.03 штиль 0 10 км ясно -7.1 -8.1 93 -8 -8 1029.0 1022.5
03 20.03 штиль 0 4000 м дымка ясно -8.5 -9.8 90 -9 -9 1029.0 1022.5 -8.8 20
06 20.03 штиль 0 500 м переохл. туман [диам. изморози 1 мм] ?/? -4.3 -5.5 91 -5 -5 1028.4 1022.0 -9.0
09 20.03 СЗ 1 10 км {туман} 3/0
[Ci fib]
+2.6 -0.5 80 +1 +11 опасность
простуды
1027.9 1021.6
12 20.03 СЗ 1 10 км {туман} 3/0
[Ci fib]
+3.4 -0.2 77 +2 +7 1026.9 1020.7
15 20.03 ЮЗ 1 10 км ясно +0.3 -1.4 88 -2 -2 1025.9 1019.6 +4.2
18 20.03 ЮЗ 1 10 км ясно -5.3 -6.5 91 -8 -8 1026.1 1019.6
21 20.03 ЮЗ 1 200 м переохл. туман [диам. изморози 1 мм] ?/? -7.8 -9.0 91 -10 -10 1024.9 1018.4
00 21.03 штиль 0 200 м переохл. туман [диам. изморози 2 мм] ?/? -8.8 -9.6 94 -9 -9 1023.9 1017.4
03 21.03 Ю 1 2000 м дымка {туман} 10/10 210 м
[St]
-9.4 -9.6 98 -12 -12 1023.1 1016.6 -9.8 18
06 21.03 ЮЗ 1 500 м переохл. туман [диам. изморози 2 мм] ?/? -4.1 -5.1 93 -7 -7 1022.7 1016.3 -10.0
09 21.03 ЮЗ 1 500 м туман ?/? +0.4 -0.5 94 -2 -2 1021.7 1015.5
12 21.03 Ю 2 2000 м дымка {туман} 10/10 300 м
[St]
+0.5 +0.1 97 -3 -3 1020.3 1014.0
15 21.03 Ю 1 4000 м дымка 10/0
[Ac trans]
+0.6 -0.2 94 -1 -1 1019.7 1013.1 +1.4
18 21.03 СЗ 2 4000 м слаб. дождь 10/10 400 м
[Sc]
+0.4 -0.8 92 -3 -3 1019.7 1013.4
21 21.03 СЗ 1 4000 м дымка {дождь} 10/10 450 м
[Sc]
+0.4 -0.5 94 -2 -2 1018.8 1012.6
00 22.03 СЗ 3 4000 м дымка {дождь} 10/10 400 м
[Sc]
+0.4 -0.6 93 -4 -4 1018.0 1011.7
03 22.03 СЗ 3 4000 м слаб. снег ясно +0.2 -0.7 94 -5 -5 1017.3 1011.1 -0.1 0.9 15
06 22.03 СЗ 4 4000 м слаб. снег {дождь} 10/10 360 м
[Sc]
+0.8 -0.6 90 -5 -5 1017.1 1010.8
09 22.03 СЗ 5 4000 м дымка {снег} 10/10 750 м
[Sc]
+1.1 +0.5 96 -5 -5 1015.9 1009.7
12 22.03 З 3 10 км {снег} 4/0
[Ac trans]
+2.5 -0.4 81 -2 +1 1014.4 1008.2
15 22.03 ЮЗ 2 10 км ясно -0.0 -1.5 90 -4 -4 1013.6 1007.4 +2.7 0.3
18 22.03 ЮЗ 2 10 км ясно -3.8 -4.8 93 -8 -8 1013.6 1007.2
21 22.03 Ю 2 10 км 10/0
[Ac trans]
-2.2 -3.2 93 -6 -6 1012.0 1005.7
00 23.03 В 2 10 км слаб. снег 10/10 1500 м
[Sc]
-0.8 -1.9 92 -5 -5 1010.9 1004.6
03 23.03 ЮВ 3 10 км {снег} 10/10 600 м
[Sc]
-0.2 -1.2 93 -5 -5 1010.0 1003.8 -4.6 0.2 15
06 23.03 ЮВ 4 4000 м слаб. снег 10/10 210 м
[Frnb Ns]
+0.7 -0.6 91 -5 -5 1011.2 1005.0
09 23.03 В 4 4000 м слаб. снег 10/10 210 м
[Frnb Ns]
+1.1 -0.2 91 -4 -4 1010.9 1004.7
12 23.03 ЮВ 4
{10}
4000 м дымка {снег} 10/0 270 м
[]
+1.1 -0.0 92 -4 -3 1012.0 1005.8
15 23.03 ЮВ 2 4000 м дымка 10/10 1080 м
[Sc]
+1.2 -0.1 91 -2 -2 1014.5 1008.3 +1.5 0.4
18 23.03 В 2 4000 м дымка 10/10 1200 м
[Sc]
+1.2 +1.1 99 -2 -2 1016.5 1010.3
21 23.03 В 2 4000 м дымка 10/10 600 м
[Sc]
-0.5 -1.4 94 -4 -4 1017.4 1011.1
00 24.03 В 2 4000 м дымка 10/10 400 м
[Sc]
-0.3 -0.9 96 -4 -4 1018.1 1011.8

 

Местоположение метеостанции Красный Кут (Саратовская область, Россия): широта 50.95 долгота 46.97 высота над уровнем моря 50 м.

В архиве по умолчанию представлена погода в Красном Куте за последнюю неделю. Архивные данные за месяц целиком и за предыдущие месяцы, начиная с января 2011 года, Вы можете получить, выбрав интересующий диапазон дат из раскрывающегося списка и нажав кнопку "Ввод!".


*Определитесь, кто Вы:
робот инопланетянин человек

Внимание! Время в таблицах - всемирное. Для получения местного времени необходимо прибавить поправку, которая равна 4 ч.

Смотрите также архив погоды в соседних городах и на ближайших метеорологических станциях:

Погода в Маркс (Саратовская область, Россия) (85 км)
Погода в Саратове (Саратовская область, Россия) (95 км)
Погода в Саратове ЮВ (Саратовская область, Россия) (97 км)
Погода в Новоузенске (Саратовская область, Россия) (100 км)
Погода в Палласовке (Волгоградская область, Россия) (100 км)
Погода в Ершове (Саратовская область, Россия) (104 км)
Погода в Сплавнухе (Саратовская область, Россия) (112 км)
Погода в Октябрьском Городке (Саратовская область, Россия) (130 км)
Погода в Балаково (Саратовская область, Россия) (133 км)
Погода в Александровом Гае (Саратовская область, Россия) (143 км)

Пояснения к столбцам:

Ветер - указаны скорость ветра в м/с - средняя за 10 мин, порывы в срок и между сроками (в фигурных скобках) и направление, откуда дует ветер: С - северный, СВ - северо-восточный, В - восточный, ЮВ - юго-восточный, Ю - южный, ЮЗ - юго-западный, З - западный, СЗ - северо-западный.
Видимость - горизонтальная дальность видимости в метрах или километрах. При видимости от 1 до 10 км при отсутствии осадков обычно наблюдается дымка, при ухудшении видимости до 1 км и менее - туман. В сухую погоду видимость может ухудшаться дымом, пылью или мглою.
Явления - указаны атмосферные явления, наблюдавшиеся в срок или в последний час перед сроком; фигурными скобками обозначены явления, наблюдавшиеся между сроками (за 1-3 часа до срока); квадратными скобками обозначены град или гололедные отложения с указанием их диаметра в мм.
Облачность - указаны через наклонную черту общая и нижняя облачность в баллах и высота нижней границы облаков в метрах; квадратными скобками обозначены формы облаков: Ci - перистые, Cs - перисто-слоистые, Cc - перисто-кучевые, Ac - высококучевые, As - высокослоистые, Sc - слоисто-кучевые, Ns - слоисто-дождевые, Cu - кучевые, Cb - кучево-дождевые. Подробнее классификацию облаков см. в Атласе облаков (PDF).
T - Температура воздуха - температура, измеренная на высоте 2 м над землей.
Td - Температура точки росы - температура, при понижении до которой содержащийся в воздухе водяной пар достигнет насыщения.
f - Относительная влажность воздуха - влажноcть воздуха, измеренная на высоте 2 м над землей.
Te - Эффективная температура - температура, которую ощущает одетый по сезону человек в тени. Характеристика душности погоды. При расчете учитывается влияние влажности воздуха и скорости ветра на теплоощущения человека.
Tes - Эффективная температура на солнце - температура, которую ощущает человек, с поправкой на солнечный нагрев. Характеристика знойности погоды. Зависит от высоты солнца над горизонтом, облачности и скорости ветра. Ночью, в пасмурную погоду, а также при ветре 12 м/с и более поправка равна нулю.
P - Атмосферное давление - приведенное к уровню моря атмосферное давление.
Po - Атмосферное давление - измеренное на уровне метеостанции атмосферное давление.
Tmin - Минимальная температура - минимум температуры воздуха на высоте 2 м над землей.
Tmax - Максимальная температура - максимум температуры воздуха на высоте 2 м над землей.
R - Количество осадков - Количество выпавших осадков за период времени, мм. При наведении курсора мыши на число - период времени, за который выпало указанное количество осадков.
R24 - Количество осадков - Количество выпавших осадков за 24 часа, мм.
S - Снежный покров - Высота снежного покрова, см. При наведении курсора мыши на число - состояние снежного покрова и степень покрытия местности в баллах.